Location: Newark
(48.5156°N, 1.8989°W)
Time: 21:14:23
(UTC+00:00)

Courier 1B - Pass Details

Date: 22 November 2019
Orbit: 963 x 1209 km, 28.3° (Epoch: 15 December)

Event Time Altitude Azimuth Distance (km) Brightness Sun altitude
Exits shadow 05:22:39 - 217° (SW) 3,726 10.3 -19.9°
Reaches altitude 10° 05:27:12 10° 189° (S) 2,859 9.9 -19.2°
Maximum altitude 05:29:14 11° 171° (S) 2,729 10.0 -18.8°
Drops below altitude 10° 05:31:16 10° 154° (SSE) 2,808 10.4 -18.5°
Sets 05:36:10 0° 122° (ESE) 3,705 11.8 -17.7°
